Location: New Frontier Mobile Home Park
(32.8448°N, 116.9675°W)
Time: 23:05:29
(UTC+00:00)

IGS 5A - Pass Details

Date: 14 July 2020
Orbit: 582 x 589 km, 97.6° (Epoch: 27 July)

Event Time Altitude Azimuth Distance (km) Brightness Sun altitude
Exits shadow 05:32:57 41° 260° (W) 861 4.4 -26.0°
Maximum altitude 05:33:00 41° 261° (W) 861 4.4 -26.0°
Drops below altitude 10° 05:36:55 10° 332° (NNW) 1,911 7.1 -26.5°
Sets 05:39:11 0° 340° (NNW) 2,814 8.1 -26.8°
